TimeCST,TemperatureF,Dew PointF,Humidity,Sea Level PressureIn,VisibilityMPH,Wind Direction,Wind SpeedMPH,Gust SpeedMPH,PrecipitationIn,Events,Conditions,WindDirDegrees,DateUTC
12:15 AM,42.8,33.8,70,30.02,10.0,SSE,5.8,-,N/A,,Clear,150,2012-11-30 06:15:00
12:35 AM,41.0,33.8,76,30.02,10.0,SSE,6.9,-,N/A,,Clear,160,2012-11-30 06:35:00
12:55 AM,41.0,33.8,76,30.02,10.0,SSE,5.8,-,N/A,,Clear,160,2012-11-30 06:55:00
1:15 AM,41.0,33.8,76,30.01,10.0,South,5.8,-,N/A,,Clear,170,2012-11-30 07:15:00
1:35 AM,41.0,33.8,76,30.01,10.0,South,4.6,-,N/A,,Clear,170,2012-11-30 07:35:00
1:55 AM,39.2,33.8,81,30.01,10.0,South,5.8,-,N/A,,Clear,180,2012-11-30 07:55:00
2:15 AM,41.0,33.8,76,30.01,10.0,SSE,6.9,-,N/A,,Clear,160,2012-11-30 08:15:00
2:35 AM,37.4,32.0,81,30.02,10.0,Calm,Calm,-,N/A,,Clear,0,2012-11-30 08:35:00
2:55 AM,39.2,33.8,81,30.02,10.0,Calm,Calm,-,N/A,,Clear,0,2012-11-30 08:55:00
3:15 AM,41.0,35.6,81,30.02,10.0,East,5.8,-,N/A,,Clear,90,2012-11-30 09:15:00
3:35 AM,41.0,35.6,81,30.02,10.0,ESE,4.6,-,N/A,,Clear,110,2012-11-30 09:35:00
3:55 AM,41.0,35.6,81,30.02,10.0,East,4.6,-,N/A,,Clear,100,2012-11-30 09:55:00
4:15 AM,41.0,37.4,87,30.02,10.0,East,3.5,-,N/A,,Clear,100,2012-11-30 10:15:00
4:35 AM,41.0,35.6,81,30.02,10.0,ESE,5.8,-,N/A,,Clear,110,2012-11-30 10:35:00
4:55 AM,41.0,35.6,81,30.02,10.0,Calm,Calm,-,N/A,,Clear,0,2012-11-30 10:55:00
6:20 AM,39.2,35.6,87,30.02,10.0,SSE,5.8,-,N/A,,Clear,150,2012-11-30 12:20:00
7:50 AM,35.6,35.6,100,30.04,5.0,Calm,Calm,-,N/A,,Clear,0,2012-11-30 13:50:00
9:50 AM,53.6,48.2,82,30.06,7.0,South,11.5,-,N/A,,Partly Cloudy,180,2012-11-30 15:50:00
10:50 AM,59.0,50.0,72,30.04,7.0,South,11.5,-,N/A,,Scattered Clouds,180,2012-11-30 16:50:00
11:50 AM,60.8,50.0,68,30.02,7.0,South,11.5,-,N/A,,Scattered Clouds,170,2012-11-30 17:50:00
12:50 PM,66.2,51.8,60,30.00,7.0,South,9.2,-,N/A,,Scattered Clouds,180,2012-11-30 18:50:00
1:50 PM,68.0,51.8,56,29.97,7.0,SE,11.5,-,N/A,,Scattered Clouds,140,2012-11-30 19:50:00
3:50 PM,68.0,50.0,52,29.95,7.0,SSE,15.0,-,N/A,,Scattered Clouds,160,2012-11-30 21:50:00
4:50 PM,64.4,50.0,59,29.95,7.0,South,9.2,-,N/A,,Scattered Clouds,180,2012-11-30 22:50:00
5:50 PM,60.8,51.8,72,29.96,10.0,ESE,10.4,-,N/A,,Mostly Cloudy,110,2012-11-30 23:50:00
6:50 PM,57.2,51.8,82,29.96,7.0,East,9.2,-,N/A,,Scattered Clouds,100,2012-12-01 00:50:00
8:15 PM,51.8,50.0,94,29.95,5.0,Calm,Calm,-,N/A,,Clear,0,2012-12-01 02:15:00
8:35 PM,53.6,50.0,88,29.94,7.0,Calm,Calm,-,N/A,,Clear,0,2012-12-01 02:35:00
8:50 PM,53.6,51.8,94,29.95,7.0,ESE,6.9,-,N/A,,Scattered Clouds,120,2012-12-01 02:50:00
9:15 PM,51.8,50.0,94,29.95,5.0,SSE,3.5,-,N/A,,Clear,150,2012-12-01 03:15:00
9:35 PM,50.0,48.2,94,29.94,4.0,SE,6.9,-,N/A,,Clear,140,2012-12-01 03:35:00
9:55 PM,50.0,50.0,100,29.94,4.0,SE,6.9,-,N/A,,Clear,140,2012-12-01 03:55:00
10:15 PM,53.6,51.8,94,29.94,5.0,SE,9.2,-,N/A,,Clear,140,2012-12-01 04:15:00
10:35 PM,51.8,51.8,100,29.93,4.0,SSE,8.1,-,N/A,,Clear,150,2012-12-01 04:35:00
10:55 PM,51.8,50.0,94,29.93,4.0,SSE,8.1,-,N/A,,Clear,150,2012-12-01 04:55:00
11:15 PM,51.8,50.0,94,29.92,3.0,SSE,6.9,-,N/A,,Clear,150,2012-12-01 05:15:00
11:35 PM,50.0,50.0,100,29.92,2.0,SSE,6.9,-,N/A,,Clear,150,2012-12-01 05:35:00
11:55 PM,50.0,48.2,94,29.91,1.8,SSE,6.9,-,N/A,,Mist,150,2012-12-01 05:55:00